Location: *
(2.5500°S, 65.9667°W)
Time: 13:53:01
(UTC+00:00)

H-2A R/B - Pass Details

Date: 06 June 2022
Orbit: 734 x 836 km, 98.2° (Epoch: 30 June)

Event Time Altitude Azimuth Distance (km) Brightness Sun altitude
Rises 09:28:28 0° 36° (NE) 3,334 6.4 -13.5°
Reaches altitude 10° 09:31:14 10° 49° (NE) 2,392 5.8 -12.8°
Maximum altitude 09:35:28 25° 102° (ESE) 1,579 4.3 -11.8°
Drops below altitude 10° 09:39:38 10° 156° (SSE) 2,350 4.5 -10.9°
Sets 09:42:18 0° 169° (S) 3,263 5.1 -10.3°
